iso_date,epoch_date,Year,Hour,Min,DOY,POS_DOY,Lat,Lon,BP,Ts,Ta,has_bp,has_ts,has_ta,BuoyID,Buoy_Type,Buoy_Owner,Logistics,Hemisphere
2020-09-07T22:00:02Z,1599516003,2020,22,0,251.9167,251.9167,57.017,-175.415,1014.7,10.04,-999.0,yes,yes,no,300534060710630,BD2GI,AOML,ARAON,North
2020-09-07T22:59:57Z,1599519597,2020,23,0,251.9583,251.9583,57.015,-175.408,1015.4,10.07,-999.0,yes,yes,no,300534060710630,BD2GI,AOML,ARAON,North
2020-09-08T00:00:00Z,1599523200,2020,0,0,252.0,252.0,57.013,-175.401,1015.9,10.08,-999.0,yes,yes,no,300534060710630,BD2GI,AOML,ARAON,North
2020-09-08T01:00:02Z,1599526803,2020,1,0,252.0417,252.0417,57.011,-175.394,1016.5,10.1,-999.0,yes,yes,no,300534060710630,BD2GI,AOML,ARAON,North
2020-09-08T01:59:57Z,1599530397,2020,2,0,252.0833,252.0833,57.007,-175.387,1016.9,10.14,-999.0,yes,yes,no,300534060710630,BD2GI,AOML,ARAON,North
2020-09-08T03:00:00Z,1599534000,2020,3,0,252.125,252.125,57.003,-175.382,1017.2,10.13,-999.0,yes,yes,no,300534060710630,BD2GI,AOML,ARAON,North
2020-09-08T04:00:02Z,1599537603,2020,4,0,252.1667,252.1667,56.998,-175.378,1017.7,10.13,-999.0,yes,yes,no,300534060710630,BD2GI,AOML,ARAON,North
2020-09-08T04:59:57Z,1599541197,2020,5,0,252.2083,252.2083,56.995,-175.376,1018.1,10.13,-999.0,yes,yes,no,300534060710630,BD2GI,AOML,ARAON,North
2020-09-08T06:00:00Z,1599544800,2020,6,0,252.25,252.25,56.992,-175.377,1018.4,10.13,-999.0,yes,yes,no,300534060710630,BD2GI,AOML,ARAON,North
2020-09-08T07:00:02Z,1599548403,2020,7,0,252.2917,252.2917,56.991,-175.379,1019.4,10.11,-999.0,yes,yes,no,300534060710630,BD2GI,AOML,ARAON,North
2020-09-08T07:59:57Z,1599551997,2020,8,0,252.3333,252.3333,56.991,-175.376,1020.1,10.11,-999.0,yes,yes,no,300534060710630,BD2GI,AOML,ARAON,North
2020-09-08T09:00:00Z,1599555600,2020,9,0,252.375,252.375,56.992,-175.37,1020.5,10.1,-999.0,yes,yes,no,300534060710630,BD2GI,AOML,ARAON,North
2020-09-08T10:00:02Z,1599559203,2020,10,0,252.4167,252.4167,56.992,-175.363,1021.0,10.09,-999.0,yes,yes,no,300534060710630,BD2GI,AOML,ARAON,North
2020-09-08T10:59:57Z,1599562797,2020,11,0,252.4583,252.4583,56.991,-175.354,1021.4,10.08,-999.0,yes,yes,no,300534060710630,BD2GI,AOML,ARAON,North
2020-09-08T12:00:00Z,1599566400,2020,12,0,252.5,252.5,56.991,-175.345,1022.0,10.07,-999.0,yes,yes,no,300534060710630,BD2GI,AOML,ARAON,North
2020-09-08T13:00:02Z,1599570003,2020,13,0,252.5417,252.5417,56.988,-175.335,1022.3,10.07,-999.0,yes,yes,no,300534060710630,BD2GI,AOML,ARAON,North
2020-09-08T13:59:57Z,1599573597,2020,14,0,252.5833,252.5833,56.985,-175.327,1022.6,10.07,-999.0,yes,yes,no,300534060710630,BD2GI,AOML,ARAON,North
2020-09-08T15:00:00Z,1599577200,2020,15,0,252.625,252.625,56.981,-175.318,1023.1,10.06,-999.0,yes,yes,no,300534060710630,BD2GI,AOML,ARAON,North
2020-09-08T16:00:02Z,1599580803,2020,16,0,252.6667,252.6667,56.978,-175.31,1023.4,10.06,-999.0,yes,yes,no,300534060710630,BD2GI,AOML,ARAON,North
2020-09-08T16:59:57Z,1599584397,2020,17,0,252.7083,252.7083,56.975,-175.307,1023.8,10.05,-999.0,yes,yes,no,300534060710630,BD2GI,AOML,ARAON,North
2020-09-08T18:00:00Z,1599588000,2020,18,0,252.75,252.75,56.974,-175.304,1024.4,10.06,-999.0,yes,yes,no,300534060710630,BD2GI,AOML,ARAON,North
2020-09-08T19:00:02Z,1599591603,2020,19,0,252.7917,252.7917,56.973,-175.3,1024.7,10.06,-999.0,yes,yes,no,300534060710630,BD2GI,AOML,ARAON,North
2020-09-08T19:59:57Z,1599595197,2020,20,0,252.8333,252.8333,56.971,-175.299,1025.1,10.08,-999.0,yes,yes,no,300534060710630,BD2GI,AOML,ARAON,North
2020-09-08T21:00:00Z,1599598800,2020,21,0,252.875,252.875,56.971,-175.295,1025.5,10.15,-999.0,yes,yes,no,300534060710630,BD2GI,AOML,ARAON,North
2020-09-08T22:00:02Z,1599602403,2020,22,0,252.9167,252.9167,56.971,-175.291,1025.9,10.24,-999.0,yes,yes,no,300534060710630,BD2GI,AOML,ARAON,North
2020-09-08T22:59:57Z,1599605997,2020,23,0,252.9583,252.9583,56.972,-175.284,1026.2,10.29,-999.0,yes,yes,no,300534060710630,BD2GI,AOML,ARAON,North
2020-09-09T00:00:00Z,1599609600,2020,0,0,253.0,253.0,56.973,-175.277,1026.4,10.36,-999.0,yes,yes,no,300534060710630,BD2GI,AOML,ARAON,North
2020-09-09T01:00:02Z,1599613203,2020,1,0,253.0417,253.0417,56.973,-175.266,1026.5,10.4,-999.0,yes,yes,no,300534060710630,BD2GI,AOML,ARAON,North
2020-09-09T01:59:57Z,1599616797,2020,2,0,253.0833,253.0833,56.974,-175.258,1026.5,10.42,-999.0,yes,yes,no,300534060710630,BD2GI,AOML,ARAON,North
2020-09-09T03:00:00Z,1599620400,2020,3,0,253.125,253.125,56.972,-175.248,1026.6,10.43,-999.0,yes,yes,no,300534060710630,BD2GI,AOML,ARAON,North
2020-09-09T04:00:02Z,1599624003,2020,4,0,253.1667,253.1667,56.97,-175.241,1026.7,10.42,-999.0,yes,yes,no,300534060710630,BD2GI,AOML,ARAON,North
2020-09-09T04:59:57Z,1599627597,2020,5,0,253.2083,253.2083,56.968,-175.236,1026.7,10.4,-999.0,yes,yes,no,300534060710630,BD2GI,AOML,ARAON,North
2020-09-09T06:00:00Z,1599631200,2020,6,0,253.25,253.25,56.966,-175.232,1026.7,10.35,-999.0,yes,yes,no,300534060710630,BD2GI,AOML,ARAON,North
2020-09-09T07:00:02Z,1599634803,2020,7,0,253.2917,253.2917,56.964,-175.226,1027.1,10.32,-999.0,yes,yes,no,300534060710630,BD2GI,AOML,ARAON,North
2020-09-09T07:59:57Z,1599638397,2020,8,0,253.3333,253.3333,56.964,-175.223,1027.5,10.28,-999.0,yes,yes,no,300534060710630,BD2GI,AOML,ARAON,North
2020-09-09T09:00:00Z,1599642000,2020,9,0,253.375,253.375,56.964,-175.222,1027.5,10.25,-999.0,yes,yes,no,300534060710630,BD2GI,AOML,ARAON,North
2020-09-09T10:00:02Z,1599645603,2020,10,0,253.4167,253.4167,56.966,-175.219,1027.6,10.22,-999.0,yes,yes,no,300534060710630,BD2GI,AOML,ARAON,North
2020-09-09T10:59:57Z,1599649197,2020,11,0,253.4583,253.4583,56.967,-175.213,1027.4,10.19,-999.0,yes,yes,no,300534060710630,BD2GI,AOML,ARAON,North
2020-09-09T12:00:00Z,1599652800,2020,12,0,253.5,253.5,56.968,-175.207,1027.7,10.15,-999.0,yes,yes,no,300534060710630,BD2GI,AOML,ARAON,North
2020-09-09T13:00:02Z,1599656403,2020,13,0,253.5417,253.5417,56.969,-175.198,1027.5,10.13,-999.0,yes,yes,no,300534060710630,BD2GI,AOML,ARAON,North
2020-09-09T13:59:57Z,1599659997,2020,14,0,253.5833,253.5833,56.97,-175.189,1027.5,10.12,-999.0,yes,yes,no,300534060710630,BD2GI,AOML,ARAON,North
2020-09-09T15:00:00Z,1599663600,2020,15,0,253.625,253.625,56.971,-175.177,1027.5,10.13,-999.0,yes,yes,no,300534060710630,BD2GI,AOML,ARAON,North
2020-09-09T16:00:02Z,1599667203,2020,16,0,253.6667,253.6667,56.971,-175.166,1027.6,10.12,-999.0,yes,yes,no,300534060710630,BD2GI,AOML,ARAON,North
2020-09-09T16:59:57Z,1599670797,2020,17,0,253.7083,253.7083,56.97,-175.159,1027.7,10.11,-999.0,yes,yes,no,300534060710630,BD2GI,AOML,ARAON,North
2020-09-09T18:00:00Z,1599674400,2020,18,0,253.75,253.75,56.969,-175.153,1027.7,10.1,-999.0,yes,yes,no,300534060710630,BD2GI,AOML,ARAON,North
2020-09-09T19:00:02Z,1599678003,2020,19,0,253.7917,253.7917,56.969,-175.149,1027.8,10.11,-999.0,yes,yes,no,300534060710630,BD2GI,AOML,ARAON,North
2020-09-09T19:59:57Z,1599681597,2020,20,0,253.8333,253.8333,56.969,-175.145,1028.1,10.11,-999.0,yes,yes,no,300534060710630,BD2GI,AOML,ARAON,North
2020-09-09T21:00:00Z,1599685200,2020,21,0,253.875,253.875,56.97,-175.14,1028.3,10.12,-999.0,yes,yes,no,300534060710630,BD2GI,AOML,ARAON,North
2020-09-09T22:00:02Z,1599688803,2020,22,0,253.9167,253.9167,56.971,-175.137,1028.3,10.13,-999.0,yes,yes,no,300534060710630,BD2GI,AOML,ARAON,North
2020-09-09T22:59:57Z,1599692397,2020,23,0,253.9583,253.9583,56.974,-175.132,1028.2,10.15,-999.0,yes,yes,no,300534060710630,BD2GI,AOML,ARAON,North
2020-09-10T00:00:00Z,1599696000,2020,0,0,254.0,254.0,56.976,-175.129,1028.2,10.17,-999.0,yes,yes,no,300534060710630,BD2GI,AOML,ARAON,North
2020-09-10T01:00:02Z,1599699603,2020,1,0,254.0417,254.0417,56.979,-175.126,1028.2,10.18,-999.0,yes,yes,no,300534060710630,BD2GI,AOML,ARAON,North
2020-09-10T01:59:57Z,1599703197,2020,2,0,254.0833,254.0833,56.981,-175.121,1027.9,10.19,-999.0,yes,yes,no,300534060710630,BD2GI,AOML,ARAON,North
2020-09-10T03:00:00Z,1599706800,2020,3,0,254.125,254.125,56.983,-175.115,1027.8,10.21,-999.0,yes,yes,no,300534060710630,BD2GI,AOML,ARAON,North
2020-09-10T04:00:02Z,1599710403,2020,4,0,254.1667,254.1667,56.986,-175.11,1027.7,10.21,-999.0,yes,yes,no,300534060710630,BD2GI,AOML,ARAON,North
2020-09-10T04:59:57Z,1599713997,2020,5,0,254.2083,254.2083,56.989,-175.104,1027.8,10.2,-999.0,yes,yes,no,300534060710630,BD2GI,AOML,ARAON,North
2020-09-10T06:00:00Z,1599717600,2020,6,0,254.25,254.25,56.991,-175.101,1027.7,10.21,-999.0,yes,yes,no,300534060710630,BD2GI,AOML,ARAON,North
2020-09-10T07:00:02Z,1599721203,2020,7,0,254.2917,254.2917,56.993,-175.101,1027.8,10.19,-999.0,yes,yes,no,300534060710630,BD2GI,AOML,ARAON,North
2020-09-10T07:59:57Z,1599724797,2020,8,0,254.3333,254.3333,56.995,-175.102,1027.9,10.17,-999.0,yes,yes,no,300534060710630,BD2GI,AOML,ARAON,North
2020-09-10T09:00:00Z,1599728400,2020,9,0,254.375,254.375,56.997,-175.102,1027.9,10.17,-999.0,yes,yes,no,300534060710630,BD2GI,AOML,ARAON,North
2020-09-10T10:00:02Z,1599732003,2020,10,0,254.4167,254.4167,57.0,-175.103,1027.6,10.16,-999.0,yes,yes,no,300534060710630,BD2GI,AOML,ARAON,North
2020-09-10T10:59:57Z,1599735597,2020,11,0,254.4583,254.4583,57.003,-175.102,1027.5,10.16,-999.0,yes,yes,no,300534060710630,BD2GI,AOML,ARAON,North
2020-09-10T12:00:00Z,1599739200,2020,12,0,254.5,254.5,57.008,-175.1,1027.4,10.15,-999.0,yes,yes,no,300534060710630,BD2GI,AOML,ARAON,North
2020-09-10T13:00:02Z,1599742803,2020,13,0,254.5417,254.5417,57.011,-175.098,1027.4,10.15,-999.0,yes,yes,no,300534060710630,BD2GI,AOML,ARAON,North
2020-09-10T13:59:57Z,1599746397,2020,14,0,254.5833,254.5833,57.015,-175.094,1027.3,10.15,-999.0,yes,yes,no,300534060710630,BD2GI,AOML,ARAON,North
2020-09-10T15:00:00Z,1599750000,2020,15,0,254.625,254.625,57.018,-175.092,1027.2,10.13,-999.0,yes,yes,no,300534060710630,BD2GI,AOML,ARAON,North
2020-09-10T16:00:02Z,1599753603,2020,16,0,254.6667,254.6667,57.022,-175.092,1027.1,10.13,-999.0,yes,yes,no,300534060710630,BD2GI,AOML,ARAON,North
2020-09-10T16:59:57Z,1599757197,2020,17,0,254.7083,254.7083,57.027,-175.091,1027.0,10.12,-999.0,yes,yes,no,300534060710630,BD2GI,AOML,ARAON,North
2020-09-10T18:00:00Z,1599760800,2020,18,0,254.75,254.75,57.031,-175.089,1027.0,10.11,-999.0,yes,yes,no,300534060710630,BD2GI,AOML,ARAON,North
2020-09-10T19:00:02Z,1599764403,2020,19,0,254.7917,254.7917,57.035,-175.091,1027.0,10.11,-999.0,yes,yes,no,300534060710630,BD2GI,AOML,ARAON,North
2020-09-10T19:59:57Z,1599767997,2020,20,0,254.8333,254.8333,57.039,-175.092,1026.9,10.11,-999.0,yes,yes,no,300534060710630,BD2GI,AOML,ARAON,North
2020-09-10T21:00:00Z,1599771600,2020,21,0,254.875,254.875,57.043,-175.096,1026.8,10.11,-999.0,yes,yes,no,300534060710630,BD2GI,AOML,ARAON,North
2020-09-10T22:00:02Z,1599775203,2020,22,0,254.9167,254.9167,57.046,-175.099,1026.6,10.12,-999.0,yes,yes,no,300534060710630,BD2GI,AOML,ARAON,North
2020-09-10T22:59:57Z,1599778797,2020,23,0,254.9583,254.9583,57.049,-175.103,1026.3,10.13,-999.0,yes,yes,no,300534060710630,BD2GI,AOML,ARAON,North
2020-09-11T00:00:00Z,1599782400,2020,0,0,255.0,255.0,57.054,-175.107,1026.0,10.13,-999.0,yes,yes,no,300534060710630,BD2GI,AOML,ARAON,North
2020-09-11T01:00:02Z,1599786003,2020,1,0,255.0417,255.0417,57.06,-175.109,1025.7,10.13,-999.0,yes,yes,no,300534060710630,BD2GI,AOML,ARAON,North
2020-09-11T01:59:57Z,1599789597,2020,2,0,255.0833,255.0833,57.066,-175.11,1025.3,10.13,-999.0,yes,yes,no,300534060710630,BD2GI,AOML,ARAON,North
2020-09-11T03:00:00Z,1599793200,2020,3,0,255.125,255.125,57.072,-175.112,1025.1,10.12,-999.0,yes,yes,no,300534060710630,BD2GI,AOML,ARAON,North
2020-09-11T04:00:02Z,1599796803,2020,4,0,255.1667,255.1667,57.077,-175.109,1024.9,10.12,-999.0,yes,yes,no,300534060710630,BD2GI,AOML,ARAON,North
2020-09-11T04:59:57Z,1599800397,2020,5,0,255.2083,255.2083,57.08,-175.107,1024.5,10.11,-999.0,yes,yes,no,300534060710630,BD2GI,AOML,ARAON,North
2020-09-11T06:00:00Z,1599804000,2020,6,0,255.25,255.25,57.08,-175.106,1024.0,10.12,-999.0,yes,yes,no,300534060710630,BD2GI,AOML,ARAON,North
2020-09-11T07:00:02Z,1599807603,2020,7,0,255.2917,255.2917,57.081,-175.108,1023.9,10.13,-999.0,yes,yes,no,300534060710630,BD2GI,AOML,ARAON,North
2020-09-11T07:59:57Z,1599811197,2020,8,0,255.3333,255.3333,57.084,-175.111,1023.8,10.12,-999.0,yes,yes,no,300534060710630,BD2GI,AOML,ARAON,North
2020-09-11T09:00:00Z,1599814800,2020,9,0,255.375,255.375,57.087,-175.116,1023.7,10.12,-999.0,yes,yes,no,300534060710630,BD2GI,AOML,ARAON,North
2020-09-11T10:00:02Z,1599818403,2020,10,0,255.4167,255.4167,57.089,-175.122,1023.5,10.11,-999.0,yes,yes,no,300534060710630,BD2GI,AOML,ARAON,North
2020-09-11T10:59:57Z,1599821997,2020,11,0,255.4583,255.4583,57.093,-175.129,1023.2,10.11,-999.0,yes,yes,no,300534060710630,BD2GI,AOML,ARAON,North
2020-09-11T12:00:00Z,1599825600,2020,12,0,255.5,255.5,57.098,-175.137,1023.0,10.11,-999.0,yes,yes,no,300534060710630,BD2GI,AOML,ARAON,North
2020-09-11T13:00:02Z,1599829203,2020,13,0,255.5417,255.5417,57.105,-175.142,1022.9,10.11,-999.0,yes,yes,no,300534060710630,BD2GI,AOML,ARAON,North
2020-09-11T13:59:57Z,1599832797,2020,14,0,255.5833,255.5833,57.112,-175.143,1022.7,10.11,-999.0,yes,yes,no,300534060710630,BD2GI,AOML,ARAON,North
2020-09-11T15:00:00Z,1599836400,2020,15,0,255.625,255.625,57.119,-175.141,1022.4,10.11,-999.0,yes,yes,no,300534060710630,BD2GI,AOML,ARAON,North
2020-09-11T16:00:02Z,1599840003,2020,16,0,255.6667,255.6667,57.125,-175.137,1022.0,10.11,-999.0,yes,yes,no,300534060710630,BD2GI,AOML,ARAON,North
2020-09-11T16:59:57Z,1599843597,2020,17,0,255.7083,255.7083,57.128,-175.134,1021.9,10.11,-999.0,yes,yes,no,300534060710630,BD2GI,AOML,ARAON,North
2020-09-11T18:00:00Z,1599847200,2020,18,0,255.75,255.75,57.129,-175.131,1021.9,10.11,-999.0,yes,yes,no,300534060710630,BD2GI,AOML,ARAON,North
2020-09-11T19:00:02Z,1599850803,2020,19,0,255.7917,255.7917,57.129,-175.129,1021.8,10.11,-999.0,yes,yes,no,300534060710630,BD2GI,AOML,ARAON,North
2020-09-11T19:59:57Z,1599854397,2020,20,0,255.8333,255.8333,57.129,-175.13,1021.7,10.11,-999.0,yes,yes,no,300534060710630,BD2GI,AOML,ARAON,North
2020-09-11T21:00:00Z,1599858000,2020,21,0,255.875,255.875,57.131,-175.135,1021.8,10.11,-999.0,yes,yes,no,300534060710630,BD2GI,AOML,ARAON,North
2020-09-11T22:00:02Z,1599861603,2020,22,0,255.9167,255.9167,57.134,-175.142,1021.3,10.12,-999.0,yes,yes,no,300534060710630,BD2GI,AOML,ARAON,North
2020-09-11T22:59:57Z,1599865197,2020,23,0,255.9583,255.9583,57.139,-175.148,1020.8,10.12,-999.0,yes,yes,no,300534060710630,BD2GI,AOML,ARAON,North
2020-09-12T00:00:00Z,1599868800,2020,0,0,256.0,256.0,57.144,-175.157,1020.1,10.12,-999.0,yes,yes,no,300534060710630,BD2GI,AOML,ARAON,North
2020-09-12T01:00:02Z,1599872403,2020,1,0,256.0417,256.0417,57.152,-175.164,1019.3,10.11,-999.0,yes,yes,no,300534060710630,BD2GI,AOML,ARAON,North
2020-09-12T01:59:57Z,1599875997,2020,2,0,256.0833,256.0833,57.16,-175.17,1018.3,10.11,-999.0,yes,yes,no,300534060710630,BD2GI,AOML,ARAON,North
2020-09-12T03:00:00Z,1599879600,2020,3,0,256.125,256.125,57.169,-175.174,1017.6,10.11,-999.0,yes,yes,no,300534060710630,BD2GI,AOML,ARAON,North
2020-09-12T04:00:02Z,1599883203,2020,4,0,256.1667,256.1667,57.179,-175.175,1016.7,10.11,-999.0,yes,yes,no,300534060710630,BD2GI,AOML,ARAON,North
2020-09-12T04:59:57Z,1599886797,2020,5,0,256.2083,256.2083,57.189,-175.173,1015.6,10.11,-999.0,yes,yes,no,300534060710630,BD2GI,AOML,ARAON,North
2020-09-12T06:00:00Z,1599890400,2020,6,0,256.25,256.25,57.197,-175.167,1014.8,10.1,-999.0,yes,yes,no,300534060710630,BD2GI,AOML,ARAON,North
2020-09-12T07:00:02Z,1599894003,2020,7,0,256.2917,256.2917,57.203,-175.162,1014.3,10.1,-999.0,yes,yes,no,300534060710630,BD2GI,AOML,ARAON,North
2020-09-12T07:59:57Z,1599897597,2020,8,0,256.3333,256.3333,57.207,-175.157,1013.5,10.09,-999.0,yes,yes,no,300534060710630,BD2GI,AOML,ARAON,North
2020-09-12T09:00:00Z,1599901200,2020,9,0,256.375,256.375,57.208,-175.157,1012.9,10.09,-999.0,yes,yes,no,300534060710630,BD2GI,AOML,ARAON,North
2020-09-12T10:00:02Z,1599904803,2020,10,0,256.4167,256.4167,57.21,-175.16,1012.4,10.09,-999.0,yes,yes,no,300534060710630,BD2GI,AOML,ARAON,North
2020-09-12T10:59:57Z,1599908397,2020,11,0,256.4583,256.4583,57.214,-175.167,1011.8,10.09,-999.0,yes,yes,no,300534060710630,BD2GI,AOML,ARAON,North
2020-09-12T12:00:00Z,1599912000,2020,12,0,256.5,256.5,57.219,-175.177,1011.0,10.07,-999.0,yes,yes,no,300534060710630,BD2GI,AOML,ARAON,North
2020-09-12T13:00:02Z,1599915603,2020,13,0,256.5417,256.5417,57.227,-175.186,1010.6,10.07,-999.0,yes,yes,no,300534060710630,BD2GI,AOML,ARAON,North
2020-09-12T13:59:57Z,1599919197,2020,14,0,256.5833,256.5833,57.237,-175.192,1010.2,10.06,-999.0,yes,yes,no,300534060710630,BD2GI,AOML,ARAON,North
2020-09-12T15:00:00Z,1599922800,2020,15,0,256.625,256.625,57.25,-175.189,1009.8,10.05,-999.0,yes,yes,no,300534060710630,BD2GI,AOML,ARAON,North
2020-09-12T16:00:02Z,1599926403,2020,16,0,256.6667,256.6667,57.262,-175.184,1009.4,10.04,-999.0,yes,yes,no,300534060710630,BD2GI,AOML,ARAON,North
2020-09-12T16:59:57Z,1599929997,2020,17,0,256.7083,256.7083,57.27,-175.175,1009.2,10.03,-999.0,yes,yes,no,300534060710630,BD2GI,AOML,ARAON,North
2020-09-12T18:00:00Z,1599933600,2020,18,0,256.75,256.75,57.276,-175.168,1009.2,10.02,-999.0,yes,yes,no,300534060710630,BD2GI,AOML,ARAON,North
2020-09-12T19:00:02Z,1599937203,2020,19,0,256.7917,256.7917,57.281,-175.16,1009.1,10.01,-999.0,yes,yes,no,300534060710630,BD2GI,AOML,ARAON,North
2020-09-12T19:59:57Z,1599940797,2020,20,0,256.8333,256.8333,57.285,-175.157,1009.2,10.0,-999.0,yes,yes,no,300534060710630,BD2GI,AOML,ARAON,North
2020-09-12T21:00:00Z,1599944400,2020,21,0,256.875,256.875,57.287,-175.156,1009.4,9.99,-999.0,yes,yes,no,300534060710630,BD2GI,AOML,ARAON,North
2020-09-12T22:00:02Z,1599948003,2020,22,0,256.9167,256.9167,57.289,-175.157,1009.6,9.99,-999.0,yes,yes,no,300534060710630,BD2GI,AOML,ARAON,North
2020-09-12T22:59:57Z,1599951597,2020,23,0,256.9583,256.9583,57.292,-175.164,1009.4,9.99,-999.0,yes,yes,no,300534060710630,BD2GI,AOML,ARAON,North
2020-09-13T00:00:00Z,1599955200,2020,0,0,257.0,257.0,57.297,-175.171,1009.1,9.99,-999.0,yes,yes,no,300534060710630,BD2GI,AOML,ARAON,North
2020-09-13T01:00:02Z,1599958803,2020,1,0,257.0417,257.0417,57.303,-175.178,1009.0,9.99,-999.0,yes,yes,no,300534060710630,BD2GI,AOML,ARAON,North
2020-09-13T01:59:57Z,1599962397,2020,2,0,257.0833,257.0833,57.309,-175.185,1008.6,9.99,-999.0,yes,yes,no,300534060710630,BD2GI,AOML,ARAON,North
2020-09-13T03:00:00Z,1599966000,2020,3,0,257.125,257.125,57.315,-175.192,1008.2,9.99,-999.0,yes,yes,no,300534060710630,BD2GI,AOML,ARAON,North
2020-09-13T04:00:02Z,1599969603,2020,4,0,257.1667,257.1667,57.323,-175.197,1007.7,10.0,-999.0,yes,yes,no,300534060710630,BD2GI,AOML,ARAON,North
2020-09-13T04:59:57Z,1599973197,2020,5,0,257.2083,257.2083,57.33,-175.2,1007.4,10.0,-999.0,yes,yes,no,300534060710630,BD2GI,AOML,ARAON,North
2020-09-13T06:00:00Z,1599976800,2020,6,0,257.25,257.25,57.338,-175.202,1007.2,10.0,-999.0,yes,yes,no,300534060710630,BD2GI,AOML,ARAON,North
2020-09-13T07:00:02Z,1599980403,2020,7,0,257.2917,257.2917,57.345,-175.204,1007.1,10.0,-999.0,yes,yes,no,300534060710630,BD2GI,AOML,ARAON,North
2020-09-13T07:59:57Z,1599983997,2020,8,0,257.3333,257.3333,57.352,-175.205,1006.9,10.0,-999.0,yes,yes,no,300534060710630,BD2GI,AOML,ARAON,North
2020-09-13T09:00:00Z,1599987600,2020,9,0,257.375,257.375,57.358,-175.205,1006.5,10.0,-999.0,yes,yes,no,300534060710630,BD2GI,AOML,ARAON,North
2020-09-13T10:00:02Z,1599991203,2020,10,0,257.4167,257.4167,57.363,-175.204,1006.0,10.0,-999.0,yes,yes,no,300534060710630,BD2GI,AOML,ARAON,North
2020-09-13T10:59:57Z,1599994797,2020,11,0,257.4583,257.4583,57.369,-175.202,1005.5,10.0,-999.0,yes,yes,no,300534060710630,BD2GI,AOML,ARAON,North
2020-09-13T12:00:00Z,1599998400,2020,12,0,257.5,257.5,57.372,-175.202,1005.2,9.99,-999.0,yes,yes,no,300534060710630,BD2GI,AOML,ARAON,North
2020-09-13T13:00:02Z,1600002003,2020,13,0,257.5417,257.5417,57.375,-175.203,1004.9,9.99,-999.0,yes,yes,no,300534060710630,BD2GI,AOML,ARAON,North
2020-09-13T13:59:57Z,1600005597,2020,14,0,257.5833,257.5833,57.378,-175.207,1004.8,9.98,-999.0,yes,yes,no,300534060710630,BD2GI,AOML,ARAON,North
2020-09-13T15:00:00Z,1600009200,2020,15,0,257.625,257.625,57.38,-175.21,1004.9,9.97,-999.0,yes,yes,no,300534060710630,BD2GI,AOML,ARAON,North
2020-09-13T16:00:02Z,1600012803,2020,16,0,257.6667,257.6667,57.384,-175.214,1004.9,9.97,-999.0,yes,yes,no,300534060710630,BD2GI,AOML,ARAON,North
2020-09-13T16:59:57Z,1600016397,2020,17,0,257.7083,257.7083,57.388,-175.219,1005.1,9.97,-999.0,yes,yes,no,300534060710630,BD2GI,AOML,ARAON,North
2020-09-13T18:00:00Z,1600020000,2020,18,0,257.75,257.75,57.393,-175.222,1005.1,9.96,-999.0,yes,yes,no,300534060710630,BD2GI,AOML,ARAON,North
2020-09-13T19:00:02Z,1600023603,2020,19,0,257.7917,257.7917,57.398,-175.225,1005.1,9.97,-999.0,yes,yes,no,300534060710630,BD2GI,AOML,ARAON,North
2020-09-13T19:59:57Z,1600027197,2020,20,0,257.8333,257.8333,57.403,-175.228,1005.0,9.97,-999.0,yes,yes,no,300534060710630,BD2GI,AOML,ARAON,North
2020-09-13T21:00:00Z,1600030800,2020,21,0,257.875,257.875,57.408,-175.229,1004.9,9.98,-999.0,yes,yes,no,300534060710630,BD2GI,AOML,ARAON,North
2020-09-13T22:00:02Z,1600034403,2020,22,0,257.9167,257.9167,57.412,-175.229,1004.5,9.99,-999.0,yes,yes,no,300534060710630,BD2GI,AOML,ARAON,North
2020-09-13T22:59:57Z,1600037997,2020,23,0,257.9583,257.9583,57.414,-175.23,1004.3,10.0,-999.0,yes,yes,no,300534060710630,BD2GI,AOML,ARAON,North
2020-09-14T00:00:00Z,1600041600,2020,0,0,258.0,258.0,57.417,-175.234,1004.0,10.0,-999.0,yes,yes,no,300534060710630,BD2GI,AOML,ARAON,North
2020-09-14T01:00:02Z,1600045203,2020,1,0,258.0417,258.0417,57.421,-175.24,1003.7,10.06,-999.0,yes,yes,no,300534060710630,BD2GI,AOML,ARAON,North
2020-09-14T01:59:57Z,1600048797,2020,2,0,258.0833,258.0833,57.426,-175.246,1003.6,10.07,-999.0,yes,yes,no,300534060710630,BD2GI,AOML,ARAON,North
2020-09-14T03:00:00Z,1600052400,2020,3,0,258.125,258.125,57.432,-175.252,1003.5,10.09,-999.0,yes,yes,no,300534060710630,BD2GI,AOML,ARAON,North
2020-09-14T04:00:02Z,1600056003,2020,4,0,258.1667,258.1667,57.439,-175.256,1003.6,10.09,-999.0,yes,yes,no,300534060710630,BD2GI,AOML,ARAON,North
2020-09-14T04:59:57Z,1600059597,2020,5,0,258.2083,258.2083,57.447,-175.258,1003.6,10.07,-999.0,yes,yes,no,300534060710630,BD2GI,AOML,ARAON,North
2020-09-14T06:00:00Z,1600063200,2020,6,0,258.25,258.25,57.454,-175.256,1003.8,10.03,-999.0,yes,yes,no,300534060710630,BD2GI,AOML,ARAON,North
2020-09-14T07:00:02Z,1600066803,2020,7,0,258.2917,258.2917,57.461,-175.253,1004.0,10.0,-999.0,yes,yes,no,300534060710630,BD2GI,AOML,ARAON,North
2020-09-14T07:59:57Z,1600070397,2020,8,0,258.3333,258.3333,57.466,-175.249,1004.5,9.99,-999.0,yes,yes,no,300534060710630,BD2GI,AOML,ARAON,North
2020-09-14T09:00:00Z,1600074000,2020,9,0,258.375,258.375,57.471,-175.244,1004.5,10.0,-999.0,yes,yes,no,300534060710630,BD2GI,AOML,ARAON,North
2020-09-14T10:00:02Z,1600077603,2020,10,0,258.4167,258.4167,57.475,-175.242,1004.6,10.0,-999.0,yes,yes,no,300534060710630,BD2GI,AOML,ARAON,North
2020-09-14T10:59:57Z,1600081197,2020,11,0,258.4583,258.4583,57.479,-175.242,1004.3,10.0,-999.0,yes,yes,no,300534060710630,BD2GI,AOML,ARAON,North
2020-09-14T12:00:00Z,1600084800,2020,12,0,258.5,258.5,57.483,-175.243,1004.1,10.01,-999.0,yes,yes,no,300534060710630,BD2GI,AOML,ARAON,North
2020-09-14T13:00:02Z,1600088403,2020,13,0,258.5417,258.5417,57.487,-175.246,1004.1,10.01,-999.0,yes,yes,no,300534060710630,BD2GI,AOML,ARAON,North
2020-09-14T13:59:57Z,1600091997,2020,14,0,258.5833,258.5833,57.492,-175.249,1003.9,10.0,-999.0,yes,yes,no,300534060710630,BD2GI,AOML,ARAON,North
2020-09-14T15:00:00Z,1600095600,2020,15,0,258.625,258.625,57.498,-175.251,1003.7,10.01,-999.0,yes,yes,no,300534060710630,BD2GI,AOML,ARAON,North
2020-09-14T16:00:02Z,1600099203,2020,16,0,258.6667,258.6667,57.504,-175.254,1003.9,10.0,-999.0,yes,yes,no,300534060710630,BD2GI,AOML,ARAON,North
2020-09-14T16:59:57Z,1600102797,2020,17,0,258.7083,258.7083,57.511,-175.254,1003.9,10.0,-999.0,yes,yes,no,300534060710630,BD2GI,AOML,ARAON,North
2020-09-14T18:00:00Z,1600106400,2020,18,0,258.75,258.75,57.517,-175.252,1003.8,10.0,-999.0,yes,yes,no,300534060710630,BD2GI,AOML,ARAON,North